www.pogodaiklimat.ru

Погода и климат >> Архив погоды >> Россия >> Татарстан >> Казань


АРХИВ ПОГОДЫ в Казани

Время (UTC), дата Ветер
(напр.,м/с)
 
Видим.   Явления Облачность Т
(С)
Тd
(С)
f
(%)
Тe
(С)
Тes
(С)
Комфортность P
(гПа)
Po
(гПа)
Тmin
(С)
Tmax
(С)
R
(мм)
R24
(мм)
S
(см)
18 18.05 штиль 0 10 км 9/0
[Ac trans Ci fib]
+12.9 +7.4 69 +13 +13 по сезону 1021.9 1007.5
21 18.05 ЮВ 1 10 км ясно +10.8 +7.5 80 +11 +11 по сезону 1021.6 1007.1
00 19.05 В 1 10 км 4/0
[Ci fib]
+9.8 +6.1 78 +9 +9 по сезону 1020.8 1006.3
03 19.05 ЮВ 1 10 км 10/0
[As op]
+11.0 +5.8 70 +11 +12 по сезону 1020.4 1005.9 +9.7
06 19.05 ЮВ 1 10 км в посл. час дождь 10/0
[As op]
+13.2 +7.4 68 +13 +16 по сезону 1020.3 1006.0
09 19.05 С 2 10 км 8/6
[Sc diur, vesp Ac lent]
+20.1 +4.7 36 +21 +25 комфорт 1019.2 1005.2
12 19.05 В 2 10 км 9/4 1000 м
[Sc diur, vesp Ac lent]
+20.8 -0.1 25 +21 +23 комфорт 1017.7 1003.7
15 19.05 В 1 10 км 6/0
[Ac lent]
+21.2 +1.3 27 +21 +22 комфорт 1016.6 1002.7 +22.5
18 19.05 В 1 10 км 3/0
[Ac trans Ci fib]
+16.0 +5.4 49 +17 +17 тепло 1017.1 1002.9
21 19.05 Ю 1 10 км 8/0
[Ci]
+13.0 +8.7 75 +13 +13 тепло 1017.6 1003.3
00 20.05 ЮВ 1 10 км 9/0
[Ci]
+10.9 +8.4 85 +11 +11 тепло 1016.6 1002.2
03 20.05 Ю 1 10 км 9/0
[Ci]
+13.2 +9.9 80 +13 +16 тепло 1016.3 1002.0 +10.5
06 20.05 ЮЗ 2 10 км 5/1 1000 м
[Cu hum Ci fib]
+18.5 +9.7 57 +19 +28 тепло 1015.1 1001.1
09 20.05 З 1 10 км 9/9 600 м
[Cb cap]
+18.8 +8.7 52 +20 +22 тепло 1013.4 999.4
12 20.05 ЮЗ 1 10 км 9/9 600 м
[Sc]
+21.4 +7.7 41 +22 +23 комфорт 1011.1 997.3
15 20.05 ЮЗ 2 10 км ясно +21.8 +6.6 37 +23 +24 комфорт 1009.1 995.3 +22.0
18 20.05 ЮВ 1 10 км 3/0
[Ac lent]
+16.7 +8.1 57 +18 +18 тепло 1008.4 994.4
21 20.05 штиль 0 10 км ясно +12.9 +7.9 72 +13 +13 тепло 1006.5 992.4
00 21.05 штиль 0 10 км 8/0
[Ac lent Cs]
+11.2 +7.9 80 +11 +11 по сезону 1005.3 991.1
03 21.05 СЗ 1 10 км 6/0
[Ac lent Cs]
+16.2 +8.1 59 +17 +19 тепло 1003.8 989.9 +10.9
06 21.05 СВ 2 10 км 10/3 1000 м
[Sc Ac As]
+17.0 +10.1 64 +17 +20 тепло 1002.0 988.2
09 21.05 С 3 10 км 10/8 300 м
[Frnb As op]
+15.7 +10.8 73 +15 +16 по сезону 1001.2 987.3
12 21.05 С 3 10 км 10/9 600 м
[Sc As op]
+10.8 +8.5 86 +9 +9 очень
холодно
1001.4 987.2
15 21.05 С 2 10 км в посл. час дождь {снег} 10/9 300 м
[Frnb As op]
+9.6 +7.6 87 +8 +8 холодно 1001.0 986.8 +17.6 1
18 21.05 С 4 10 км слабый дождь 10/9 600 м
[Sc As op]
+8.2 +4.6 78 +5 +5 очень
холодно
1002.2 987.9
21 21.05 С 3
{10}
10 км {дождь} 10/0
[As op]
+7.5 +0.7 62 +5 +5 холодно 1003.0 988.7
00 22.05 С 4-10
{10}
10 км {дождь} ясно +3.9 -2.5 63 -0 -0 очень
холодно
1004.4 989.8
03 22.05 СВ 3
{10}
10 км ясно +4.1 -3.8 56 +1 +3 очень
холодно
1006.0 991.4 +3.0
06 22.05 С 3
{10}
10 км 4/0
[Ci fib]
+7.1 -4.5 43 +5 +13 очень
холодно
1007.1 992.6
09 22.05 С 3
{12}
10 км 5/0
[Ci fib]
+10.7 -5.5 32 +9 +21 опасность
простуды
1007.3 993.0
12 22.05 С 3 10 км 9/0
[Ac trans Ci fib]
+12.1 -5.7 28 +11 +16 холодно 1007.1 992.8
15 22.05 С 2 10 км 10/0
[Cs]
+11.2 -4.8 32 +11 +12 прохладно 1007.6 993.4 +12.6
18 22.05 штиль 0 10 км 8/0
[Ci fib]
+9.2 -4.1 39 +9 +9 прохладно 1008.3 993.9
21 22.05 С 2 н/о н/о +7.4 -3.1 47 +6 +6 холодно 1009.0 994.5
00 23.05 СВ 2 10 км 10/10 600 м
[Sc]
+6.2 -3.4 50 +4 +4 холодно 1009.4 994.9
03 23.05 С 2 10 км ясно +6.9 -2.5 51 +5 +8 холодно 1010.1 995.5 +5.8
06 23.05 С 3 10 км 9/9 1000 м
[Sc]
+8.5 -6.1 35 +7 +8 очень
холодно
1011.1 996.7
09 23.05 С 2 10 км 8/8 1000 м
[Sc]
+10.2 -3.1 39 +9 +12 очень
холодно
1011.3 996.9
12 23.05 10 км н/о +12.4 -3.4 33 +12 +16 холодно 1011.0 996.7
15 23.05 С 1 10 км 6/6 1000 м
[Sc diur, vesp]
+13.2 -3.8 30 +14 +15 по сезону 1010.9 996.6 +13.4
18 23.05 В 1 10 км ясно +8.6 -2.1 47 +8 +8 холодно 1012.2 997.7
21 23.05 ЮВ 1 10 км ясно +6.0 +0.1 66 +5 +5 холодно 1012.3 997.7
00 24.05 ЮВ 1 10 км 10/10 600 м
[Sc]
+5.9 -0.7 63 +5 +5 прохладно 1012.1 997.5
03 24.05 ЮЗ 2 10 км 10/10 600 м
[Sc]
+9.3 -0.8 49 +8 +8 прохладно 1011.9 997.5 +4.8
06 24.05 З 3 10 км 8/3 600 м
[Sc Ac lent]
+14.5 +3.3 47 +14 +17 по сезону 1011.8 997.7
09 24.05 З 1 10 км 5/3 600 м
[Cu Sc Ac lent]
+19.1 +6.4 43 +21 +30 комфорт 1011.5 997.6
12 24.05 З 4
{12}
10 км 5/3 600 м
[Cu Sc Ac lent]
+21.3 +6.3 38 +22 +25 комфорт 1010.8 997.0
15 24.05 ЮЗ 3
{10}
10 км слабый ливневой дождь 9/9 600 м
[Cb cap]
+14.5 +11.5 82 +14 +14 по сезону 1012.5 998.4 +22.1 4
18 24.05 ЮЗ 1 10 км {ливн. осадки} 9/8 1000 м
[Sc diur, vesp Ac lent]
+14.1 +11.5 84 +14 +14 по сезону 1013.5 999.4
21 24.05 З 1 10 км 9/4 1000 м
[Sc diur, vesp Ac lent]
+13.2 +9.9 80 +13 +13 по сезону 1014.4 1000.2
00 25.05 штиль 0 10 км 8/6 1000 м
[Cb cap Ci fib]
+10.0 +8.7 92 +9 +9 по сезону 1015.1 1000.7
03 25.05 штиль 0 10 км 8/6 1000 м
[Cb cap Ac lent]
+15.0 +10.3 73 +15 +16 тепло 1015.5 1001.4 +9.9
06 25.05 ЮВ 1 10 км 10/8 600 м
[Sc Ac trans Ci fib]
+17.9 +9.2 57 +19 +20 тепло 1016.0 1002.0
09 25.05 В 2 10 км {дождь} 4/1 1000 м
[Cb cap Ci fib]
+21.4 +11.5 53 +23 +36 комфорт 1015.2 1001.3
12 25.05 Ю 2 10 км 8/6 600 м
[Cb cap Ac As Ci ing]
+23.9 +8.1 36 +24 +27 комфорт 1013.3 999.6
15 25.05 В 1 10 км {гроза, ливн. осадки} 9/8 1000 м
[Cb cap Ac lent]
+18.6 +11.8 65 +20 +21 тепло 1012.8 998.9 +24.7 0.5

 

Местоположение метеостанции Казань (Татарстан, Россия): широта 55.73 долгота 49.20 высота над уровнем моря 119 м.

В архиве по умолчанию представлена погода в Казани за последнюю неделю. Архивные данные за месяц целиком и за предыдущие месяцы, начиная с января 2011 года, Вы можете получить, выбрав интересующий диапазон дат из раскрывающегося списка и нажав кнопку "Ввод!".

Внимание! Время в таблицах - всемирное. Для получения местного времени необходимо прибавить поправку, которая в Казани равна 3 ч.

Смотрите также архив погоды в соседних городах и на ближайших метеорологических станциях:

Погода в Лаишево (Татарстан, Россия) (40 км)
Погода в Вязовых (Татарстан, Россия) (44 км)
Погода в Арске (Татарстан, Россия) (57 км)
Погода в Больших Кайбицах (Татарстан, Россия) (74 км)
Погода в Морках (Марий-Эл, Россия) (79 км)
Погода в Тетюшах (Татарстан, Россия) (91 км)
Погода в Чистополе (Татарстан, Россия) (102 км)
Погода в Канаше (Чувашия, Россия) (111 км)
Погода в Чебоксарах (Чувашия, Россия) (123 км)
Погода в Батырево (Чувашия, Россия) (125 км)

Пояснения к столбцам:

Ветер - указаны скорость ветра в м/с - средняя за 10 мин, порывы в срок и между сроками (в фигурных скобках) и направление, откуда дует ветер: С - северный, СВ - северо-восточный, В - восточный, ЮВ - юго-восточный, Ю - южный, ЮЗ - юго-западный, З - западный, СЗ - северо-западный.
Видимость - горизонтальная дальность видимости в метрах или километрах. При видимости от 1 до 10 км при отсутствии осадков обычно наблюдается дымка, при ухудшении видимости до 1 км и менее - туман. В сухую погоду видимость может ухудшаться дымом, пылью или мглою.
Явления - указаны атмосферные явления, наблюдавшиеся в срок или в последний час перед сроком; фигурными скобками обозначены явления, наблюдавшиеся между сроками (за 1-3 часа до срока); квадратными скобками обозначены град или гололедные отложения с указанием их диаметра в мм.
Облачность - указаны через наклонную черту общая и нижняя облачность в баллах и высота нижней границы облаков в метрах; квадратными скобками обозначены формы облаков: Ci - перистые, Cs - перисто-слоистые, Cc - перисто-кучевые, Ac - высококучевые, As - высокослоистые, Sc - слоисто-кучевые, Ns - слоисто-дождевые, Cu - кучевые, Cb - кучево-дождевые. Подробнее классификацию облаков см. в Атласе облаков (PDF).
T - Температура воздуха - температура, измеренная на высоте 2 м над землей.
Td - Температура точки росы - температура, при понижении до которой содержащийся в воздухе водяной пар достигнет насыщения.
f - Относительная влажность воздуха - влажноcть воздуха, измеренная на высоте 2 м над землей.
Te - Эффективная температура - температура, которую ощущает одетый по сезону человек в тени. Характеристика душности погоды. При расчете учитывается влияние влажности воздуха и скорости ветра на теплоощущения человека.
Tes - Эффективная температура на солнце - температура, которую ощущает человек, с поправкой на солнечный нагрев. Характеристика знойности погоды. Зависит от высоты солнца над горизонтом, облачности и скорости ветра. Ночью, в пасмурную погоду, а также при ветре 12 м/с и более поправка равна нулю.
P - Атмосферное давление - приведенное к уровню моря атмосферное давление.
Po - Атмосферное давление - измеренное на уровне метеостанции атмосферное давление.
Tmin - Минимальная температура - минимум температуры воздуха на высоте 2 м над землей.
Tmax - Максимальная температура - максимум температуры воздуха на высоте 2 м над землей.
R - Количество осадков - Количество выпавших осадков за период времени, мм. При наведении курсора мыши на число - период времени, за который выпало указанное количество осадков.
R24 - Количество осадков - Количество выпавших осадков за 24 часа, мм.
S - Снежный покров - Высота снежного покрова, см. При наведении курсора мыши на число - состояние снежного покрова и степень покрытия местности в баллах.